Flag for Germany Weather past 2 weeks in Eberswalde, Brandenburg, Germany

Now
45 °F

Light rain. Mostly cloudy.


Feels Like: 36 °F
Forecast: 42 / 51 °F
Wind: 21 mph from Southwest

Location: Berlin-Tegel

Current Time: Dec 22, 2014 at 12:39:36 AM

Latest Report: Dec 22, 2014 at 12:20 AM


Visibility: N/A

Pressure: 29.95 "Hg

Humidity: 87%

Dew point: 41 °F

Location of EberswaldeLocation

Historic Weather in Eberswalde — Graph

°F

Eberswalde temperature yesterday

Maximum temperature yesterday: 45 °F (at 1:50 PM)
Minimum temperature yesterday: 39 °F (at 12:20 AM)
Average temperature yesterday: 42 °F

Past Weeks' High & Low Weather Summary

 TemperatureHumidityPressure
High54 °F (Dec 19, 12:20 AM)100% (Dec 7, 2:20 AM)30.36 "Hg (Dec 7, 2:20 AM)
Low28 °F (Dec 9, 4:20 AM)66% (Dec 13, 11:50 AM)29.39 "Hg (Dec 12, 4:20 PM)
Average40 °F87%29.89 "Hg
* Reported Dec 6 11:20 PM — Dec 21 11:20 PM, Eberswalde, Weather by CustomWeather, © 2014

Note: Actual official high and low records may vary slightly from our data, if they occured in-between our weather recording intervals... More about our weather records

Advertising

Eberswalde weather history for previous 24 hours

 ConditionsComfort  
Time TempWeatherWind HumidityBarometerVisibility
11:20 PM
Dec 21
45 °FLight rain. Passing clouds.20 mph87%29.98 "HgN/A
10:20 PM45 °FLight rain. Passing clouds.18 mph81%30.01 "HgN/A
9:50 PM45 °FPassing clouds.21 mph81%30.01 "HgN/A
9:20 PM45 °FLight rain. Passing clouds.18 mph81%30.04 "HgN/A
8:50 PM43 °FLight rain. Passing clouds.20 mph87%30.04 "HgN/A
8:20 PM45 °FLight rain. Passing clouds.20 mph81%30.07 "HgN/A
7:50 PM45 °FLight rain. Passing clouds.21 mph76%30.07 "HgN/A
7:20 PM43 °FLight rain. Passing clouds.15 mph81%30.09 "HgN/A
6:50 PM43 °FLight rain. Passing clouds.16 mph87%30.09 "HgN/A
6:20 PM43 °FLight rain. Passing clouds.16 mph87%30.09 "HgN/A
5:50 PM43 °FLight rain. Passing clouds.15 mph81%30.09 "HgN/A
5:20 PM43 °FPartly cloudy.15 mph81%30.12 "HgN/A
4:50 PM43 °FPassing clouds.14 mph87%30.12 "HgN/A
4:20 PM43 °FLight rain. Passing clouds.16 mph87%30.12 "HgN/A
3:50 PM43 °FLight rain. Partly sunny.15 mph81%30.15 "HgN/A
3:20 PM43 °FBroken clouds.14 mph81%30.15 "HgN/A
2:50 PM43 °FPartly sunny.12 mph81%30.18 "HgN/A
2:20 PM43 °FPartly sunny.15 mph81%30.18 "HgN/A
1:50 PM45 °FPartly sunny.15 mph76%30.18 "HgN/A
1:20 PM43 °FPartly sunny.15 mph81%30.21 "HgN/A
12:20 PM43 °FPartly sunny.17 mph87%30.21 "HgN/A
11:50 AM43 °FPartly sunny.18 mph81%30.21 "HgN/A
11:20 AM41 °FPartly sunny.16 mph87%30.21 "HgN/A
10:50 AM41 °FBroken clouds.16 mph87%30.21 "HgN/A
10:20 AM41 °FBroken clouds.15 mph87%30.21 "HgN/A
9:50 AM41 °FBroken clouds.14 mph87%30.21 "HgN/A
9:20 AM41 °FBroken clouds.14 mph87%30.21 "HgN/A
8:50 AM41 °FPartly sunny.14 mph87%30.18 "HgN/A
8:20 AM41 °FPartly sunny.14 mph87%30.18 "HgN/A
7:50 AM43 °FPassing clouds.16 mph81%30.18 "HgN/A
7:20 AM41 °FPassing clouds.14 mph87%30.15 "HgN/A
6:50 AM41 °FPassing clouds.14 mph87%30.12 "HgN/A
6:20 AM41 °FPartly cloudy.14 mph81%30.12 "HgN/A
5:50 AM41 °FPartly cloudy.14 mph87%30.12 "HgN/A
5:20 AM41 °FPartly cloudy.15 mph87%30.09 "HgN/A
4:50 AM41 °FPassing clouds.17 mph87%30.09 "HgN/A
4:20 AM41 °FPartly cloudy.15 mph87%30.07 "HgN/A
3:50 AM41 °FPartly cloudy.14 mph87%30.07 "HgN/A
3:20 AM39 °FPassing clouds.14 mph93%30.04 "HgN/A
2:50 AM39 °FPassing clouds.16 mph93%30.04 "HgN/A
2:20 AM39 °FPassing clouds.17 mph93%30.01 "HgN/A
1:20 AM39 °FLight rain. Passing clouds.17 mph87%29.98 "HgN/A
12:50 AM39 °FPassing clouds.18 mph87%29.98 "HgN/A
12:20 AM39 °FPartly cloudy.18 mph81%29.95 "HgN/A
Weather by CustomWeather, © 2014

See weather overviewHow to use our weather pages